Location: Bakhuizen
(52.8696°N, 5.4575°E)
Time: 08:32:20
(UTC+00:00)

Cosmos 2242 Rocket - Pass Details

Date: 11 May 2021
Orbit: 619 x 651 km, 82.5° (Epoch: 20 June)

Event Time Altitude Azimuth Distance (km) Brightness Sun altitude
Exits shadow 23:09:01 42° 162° (SSE) 902 3.9 -18.8°
Maximum altitude 23:10:23 66° 97° (E) 691 3.7 -18.8°
Drops below altitude 10° 23:14:50 10° 16° (NNE) 2,029 7.3 -18.9°
Sets 23:17:06 0° 13° (NNE) 2,948 8.4 -18.9°
